Location: Herm
(49.4830°N, 2.4500°W)
Time: 16:59:00
(UTC+00:00)

NOAA 15 - Pass Details

Date: 04 November 2021
Orbit: 797 x 813 km, 98.7° (Epoch: 04 December)

Event Time Altitude Azimuth Distance (km) Brightness Sun altitude
Rises 20:06:54 0° 203° (SSW) 3,323 7.9 -33.3°
Reaches altitude 10° 20:09:44 10° 218° (SW) 2,397 7.3 -33.7°
Maximum altitude 20:13:49 22° 269° (W) 1,697 6.8 -34.4°
Drops below altitude 10° 20:17:57 10° 320° (NW) 2,411 7.7 -35.0°
Sets 20:20:50 0° 335° (NNW) 3,347 8.3 -35.5°
